User: anonymous   Login
Location: Lawrence Hall of Science
(37.8785°N, 122.2415°W)
Time: 12:43:46
(UTC-07:00)
Language:

ARGOS - Orbit

View from above orbital plane
View from above orbital plane
View from above satellite
View from above satellite

Ground track
Ground track

The orbit data is extracted from the following two-line orbital elements,

1 25634U 99008A   15152.21511538  .00000029  00000-0  34732-4 0  9990
2 25634 098.7160 219.9624 0009967 193.6300 232.1090 14.19242558842517
Epoch (UTC): 01 June 2015 05:09:45
Eccentricity: 0.0009967
inclination: 98.7160°
perigee height: 821 km
apogee height: 835 km
right ascension of ascending node: 219.9624°
argument of perigee: 193.6300°
revolutions per day: 14.19242558
mean anomaly at epoch: 232.1090°
orbit number at epoch: 84251

The dashed part of the orbit path shows where the satellite is in the earth's shadow,  

DLR